SCP
0 0 0 0 0 0 0 0 0 0 0 0 0 0 0 0 0 0 0 0 0 0 0 0 0 0 0 0 0 0 0 0 0 0 0 0 0 0 0 0 0 0 0
0 0 0 0 0 0 0 0 0 0 0 0 0 0 0 0 0 0 0 0 0 0 0 0 0 0 0 0 0 0 0 0 0 0 0 0 0 0 0 0 0 0 0
0 0 0 0 0 0 0 0 0 0 0 0 0 0 0 0 0 0 0 0 0 0 0 0 0 0 0 0 0 0 0 0 0 0 0 0 0 0 0 0 0 0 0
0 0 0 0 0 0 0 0 0 0 0 0 0 0 0 0 0 0 0 0 0 0 0 0 0 0 0 0 0 0 0 0 0 0 0 0 0 0 0 0 0 0 0
0 0 0 0 0 0 0 0 0 0 0 0 0 0 0 0 0 0 0 0 0 0 0 0 0 0 0 0 0 0 0 0 0 0 0 0 0 0 0 0 0 0 0
0 0 0 0 0 0 0 0 0 0 0 0 0 0 0 0 0 0 0 0 0 0 0 0 0 0 0 0 0 0 0 0 0 0 0 0 0 0 0 0 0 0 0
0 0 0 0 0 0 0 0 0 0 0 0 0 0 0 0 0 0 0 0 0 0 0 0 0 0 0 0 0 0 0 0 0 0 0 0 0 0 0 0 0 0 0
0 0 0 0 0 0 0 0 0 0 0 0 0 0 0 0 0 0 0 0 0 0 0 0 0 0 0 0 0 0 0 0 0 0 0 0 0 0 0 0 0 0 0
0 0 0 0 0 0 0 0 0 0 0 0 0 0 0 0 0 0 0 0 0 0 0 0 0 0 0 0 0 0 0 0 0 0 0 0 0 0 0 0 0 0 0
0 0 0 0 0 0 0 0 0 0 0 0 0 0 0 0 0 0 0 0 0 0 0 0 0 0 0 0 0 0 0 0 0 0 0 0 0 0 0 0 0 0 0
0 0 0 0 0 0 0 0 0 0 0 0 0 0 0 0 0 0 0 0 0 0 0 0 0 0 0 0 0 0 0 0 0 0 0 0 0 0 0 0 0 0 0
0 0 0 0 0 0 0 0 0 0 0 0 0 0 0 0 0 0 0 0 0 0 0 0 0 0 0 0 0 0 0 0 0 0 0 0 0 0 0 0 0 0 0
0 0 0 0 0 0 0 0 0 0 0 0 0 0 0 0 0 0 0 0 0 0 0 0 0 0 0 0 0 0 0 0 0 0 0 0 0 0 0 0 0 0 0
0 0 0 0 0 0 0 0 0 0 0 0 0 0 0 0 0 0 0 0 0 0 0 0 0 0 0 0 0 0 0 0 0 0 0 0 0 0 0 0 0 0 0
0 0 0 0 0 0 0 0 0 0 0 0 0 0 0 0 0 0 0 0 0 0 0 0 0 0 0 0 0 0 0 0 0 0 0 0 0 0 0 0 0 0 0
0 0 0 0 0 0 0 0 0 0 0 0 0 0 0 0 0 0 0 0 0 0 0 0 0 0 0 0 0 0 0 0 0 0 0 0 0 0 0 0 0 0 0
0 0 0 0 0 0 0 0 0 0 0 0 0 0 0 0 0 0 0 0 0 0 0 0 0 0 0 0 0 0 0 0 0 0 0 0 0 0 0 0 0 0 0
0 0 0 0 0 -0 -0 -0 0 0 0 0 0 0 0 0 0 0 0 0 0 0 0 0 0 0 0 0 0 0 0 0 0 0 0 0 0 0 0 0 0 0 0
0 0 0 0 0 0 0 0 0 0 0 0 0 0 0 0 0 0 0 0 0 0 0 0 0 0 0 0 0 0 0 0 0 0 0 0 0 0 0 0 0 0 0
0 0 0 0 0 0 0 0 0 0 0 0 0 0 0 0 0 0 0 0 0 0 0 0 0 0 0 0 0 0 0 0 0 0 0 0 0 0 0 0 0 0 0
-0 -0 -0 -0 -0 -0 0 -0 -0 0 0 0 0 0 0 0 0 0 0 0 0 0 0 0 0 0 0 0 0 0 0 0 0 0 0 0 0 0 0 0 0 0 0
0 0 0 0 -0 -0 -0 0 0 0 0 0 0 0 0 0 0 0 0 0 0 0 0 0 0 0 0 0 0 0 0 0 0 0 0 0 0 0 0 0 0 0 0
0 0 0 0 0 0 0 0 0 0 0 0 0 0 0 0 0 0 0 0 0 0 0 0 0 0 0 0 0 0 0 0 0 0 0 0 0 0 0 0 0 0 0
0 0 0 0 0 0 0 0 0 0 0 0 0 0 0 0 0 0 0 0 0 0 0 0 0 0 0 0 0 0 0 0 0 0 0 0 0 0 0 0 0 0 0
0 0 0 0 0 0 0 0 0 0 0 0 0 0 0 0 0 0 0 0 0 0 0 0 0 0 0 0 0 0 0 0 0 0 0 0 0 0 0 0 0 0 0
0 0 0 0 0 0 0 0 0 0 0 0 0 0 0 0 0 0 0 0 0 0 0 0 0 0 0 0 0 0 0 0 0 0 0 0 0 0 0 0 0 0 0
Wind_Speed_500mb
57 58 50 49 47 43 39 38 36 37 36 34 33 31 29 28 25 24 23 23 24 23 24 23 23 25 23 18 21 19 18 20 22 23 21 21 29 33 34 35 40 42 42
57 57 55 50 49 46 43 42 41 41 41 41 40 38 36 34 31 29 28 27 26 26 26 26 25 23 18 20 16 22 18 19 22 24 22 27 29 28 29 30 34 40 45
58 57 63 55 49 46 46 47 48 49 49 49 47 45 43 41 38 36 34 31 29 28 27 28 28 25 17 26 21 24 22 22 18 22 22 23 25 23 26 30 32 34 38
52 55 55 60 49 47 50 52 53 53 53 53 52 50 49 47 45 42 40 37 34 31 30 28 29 29 30 30 27 30 28 22 18 22 28 27 22 24 22 24 26 29 30
45 44 50 55 47 45 52 54 55 54 54 55 55 56 55 53 50 49 48 44 40 37 34 32 32 32 36 32 27 35 31 31 21 27 25 24 23 23 25 25 26 27 27
42 43 48 46 46 52 55 56 56 56 57 55 57 59 60 59 58 57 54 50 47 45 40 37 36 36 41 39 35 39 34 38 28 30 28 27 27 25 25 27 27 27 28
39 40 42 48 47 54 55 54 57 59 62 58 59 64 66 65 65 65 60 59 58 52 48 44 41 42 45 46 41 44 36 35 34 29 28 28 28 28 27 27 27 28 28
31 35 37 44 47 51 53 54 56 60 62 61 63 63 57 64 75 74 69 69 65 62 57 54 50 49 50 51 50 49 45 39 38 32 28 28 29 30 30 30 29 28 27
21 24 30 35 43 48 52 54 56 58 61 62 66 57 20 35 46 53 67 77 75 72 66 61 58 57 55 55 56 55 54 51 47 42 34 34 34 33 32 30 29 29 29
27 26 26 30 38 45 49 51 54 59 59 62 66 72 76 67 31 29 36 42 62 72 73 70 67 64 60 59 58 58 56 56 59 54 43 39 37 36 36 34 33 32 31
21 25 28 34 37 37 41 46 50 55 60 63 66 68 73 78 85 83 71 61 61 53 56 65 69 68 66 64 63 61 59 59 61 54 50 46 41 40 38 37 36 34 33
18 19 21 24 26 32 41 46 46 51 57 63 65 67 72 69 68 77 86 93 93 86 76 69 69 68 68 68 66 65 63 61 61 59 53 51 47 45 43 42 40 39 37
29 32 31 28 26 28 32 37 39 48 51 58 62 66 69 75 76 83 86 86 90 86 85 81 72 71 71 70 68 67 66 64 66 63 59 57 53 51 48 47 45 43 40
25 26 29 34 37 35 33 36 39 44 46 51 60 65 68 72 71 74 82 84 89 87 89 86 78 71 70 70 72 72 71 68 69 71 67 62 60 57 54 52 50 48 46
34 30 24 25 30 32 35 40 41 40 44 50 54 58 66 71 73 74 75 78 84 82 90 81 82 81 77 75 73 76 77 74 74 76 73 70 67 64 61 57 54 54 51
42 44 45 45 40 37 38 38 38 40 46 47 47 52 59 65 71 74 74 75 79 88 103 85 80 73 72 76 72 76 76 79 80 79 79 76 73 71 67 62 60 59 56
49 51 54 56 56 53 53 52 48 50 52 50 49 52 55 54 61 69 73 74 79 81 95 105 96 89 83 81 80 74 72 79 83 82 80 80 80 76 74 71 67 64 63
54 57 58 61 64 65 65 65 64 61 62 63 60 57 58 57 59 59 65 77 81 81 87 98 94 92 95 94 92 93 90 87 89 85 82 84 83 84 80 81 75 71 70
63 65 69 71 73 72 74 75 77 77 76 73 70 65 66 65 66 63 62 70 76 81 86 95 98 88 86 89 92 94 95 94 95 93 88 90 89 91 91 86 83 81 77
70 73 76 80 82 84 85 85 85 87 89 90 88 83 75 72 73 70 69 71 72 78 82 88 94 87 85 85 88 97 99 100 98 95 96 99 96 97 97 92 91 89 85
86 91 96 97 96 96 96 98 98 95 97 98 98 96 96 92 84 76 75 76 75 76 80 85 91 86 87 87 92 96 104 104 102 99 101 106 108 105 103 99 102 101 92
95 98 100 103 105 108 107 98 79 85 94 102 109 107 104 104 104 100 90 80 81 81 82 83 90 90 91 84 83 90 95 96 106 112 108 113 113 115 111 110 111 105 98
97 100 102 103 107 108 103 73 71 74 84 93 104 110 113 114 111 108 109 105 96 88 86 85 92 97 92 81 76 81 89 99 110 94 76 101 114 122 119 117 112 108 106
93 98 103 104 109 111 99 78 71 77 87 94 99 102 106 116 117 103 96 101 112 109 101 96 95 96 93 86 81 85 83 88 88 97 99 108 106 115 115 123 118 114 112
95 98 99 101 101 101 88 77 68 78 88 97 100 102 99 105 106 89 87 95 101 109 115 106 100 96 89 83 79 78 88 83 92 97 101 105 94 98 103 112 116 121 118
94 95 97 89 85 85 73 64 55 61 73 79 82 83 77 79 81 81 84 92 101 108 102 103 106 102 94 90 81 84 96 99 104 75 98 96 93 86 83 108 109 109 116
Wind_Direction_500mb
240 252 255 252 252 253 249 245 240 242 243 244 247 249 252 255 258 261 264 266 271 273 273 271 272 273 272 256 251 250 245 220 227 238 243 238 235 235 235 235 229 222 223
247 254 260 252 251 253 254 251 246 245 245 246 246 247 249 251 253 256 260 263 266 269 272 273 271 267 258 229 229 258 249 245 241 236 243 244 247 248 243 236 231 223 224
258 261 258 261 257 257 257 254 249 245 243 244 245 246 247 248 250 251 254 258 261 265 267 266 265 267 222 223 234 248 269 260 260 245 241 242 250 245 241 237 236 232 227
260 263 250 266 258 259 261 257 255 251 248 247 247 248 247 247 249 251 254 255 259 260 261 260 256 253 250 235 239 252 267 261 260 245 244 254 250 245 241 233 233 236 237
256 258 259 262 254 262 266 265 260 257 254 252 251 247 247 247 247 249 252 255 257 260 261 258 253 252 252 261 240 241 258 262 260 257 262 260 259 255 251 241 234 233 234
260 262 259 259 261 260 267 265 262 259 260 261 258 254 251 248 248 250 252 253 256 256 255 254 255 250 252 259 250 248 259 267 267 267 265 261 259 259 259 261 259 254 249
271 267 265 260 258 265 268 268 266 262 260 259 259 257 256 255 252 252 251 254 254 255 254 253 252 250 250 255 253 246 242 250 274 273 268 262 261 259 255 254 253 254 254
275 277 275 271 273 271 274 269 266 264 263 258 254 256 261 263 258 255 254 254 255 254 253 253 252 251 249 251 253 251 250 243 257 271 260 260 258 256 255 253 251 251 250
271 276 278 279 278 276 273 275 275 271 267 263 259 248 239 245 262 262 255 253 253 254 255 253 253 253 252 252 251 251 250 248 248 265 263 264 262 257 252 248 247 247 248
267 258 261 266 270 275 277 277 275 274 272 268 263 256 249 252 268 279 271 264 256 253 255 254 254 254 253 253 254 253 250 249 248 262 265 263 260 254 252 250 248 248 247
286 282 272 265 265 271 279 277 274 270 269 270 268 268 265 260 258 262 274 271 271 270 265 261 258 256 255 253 253 252 252 250 252 259 259 261 257 249 246 247 248 249 249
323 310 304 293 288 283 279 272 272 271 270 268 266 266 265 262 263 265 268 272 275 273 272 270 266 263 259 254 253 252 252 252 253 257 257 256 255 249 247 247 246 245 245
358 356 345 328 309 300 294 291 287 273 271 272 270 269 266 265 265 266 268 272 275 274 273 270 267 266 262 258 257 257 254 252 251 254 253 254 253 248 247 248 247 246 245
11 357 350 341 337 332 317 300 293 289 283 274 271 269 271 269 267 264 266 270 272 273 270 267 266 262 263 264 262 257 257 254 251 252 251 251 252 248 245 244 245 244 245
357 357 348 337 335 331 327 323 318 309 293 285 277 274 272 270 268 268 267 265 267 271 269 267 266 262 262 262 263 260 260 258 253 250 251 249 250 249 246 245 244 243 244
340 339 337 334 330 328 322 317 316 313 307 303 296 289 283 280 275 270 266 265 264 267 272 266 263 264 264 263 262 260 259 258 255 252 251 249 248 250 247 245 245 245 247
332 330 326 323 322 322 319 316 313 309 306 302 300 301 298 294 287 282 275 267 264 264 269 272 268 262 257 259 260 259 258 257 256 253 252 249 246 246 247 244 243 243 246
323 322 319 315 314 313 312 312 311 311 306 302 302 299 295 295 294 289 284 279 273 266 265 270 269 269 264 260 260 260 260 258 257 254 252 252 247 245 244 243 242 242 243
318 314 313 310 308 307 306 305 306 304 301 300 299 296 295 294 289 290 290 284 279 276 270 268 267 265 266 263 259 259 257 256 255 254 251 252 248 245 243 243 241 241 243
315 311 308 306 304 302 299 298 296 295 295 294 293 291 288 286 287 287 284 283 284 280 275 271 269 266 262 261 260 259 256 255 252 251 249 248 249 247 244 241 242 241 242
312 310 308 305 302 299 298 299 299 297 292 289 285 285 286 284 281 279 277 278 279 279 278 275 273 270 263 257 254 257 258 258 255 252 250 248 246 246 245 241 239 239 239
306 305 303 302 301 300 299 299 298 295 292 290 288 284 280 279 278 277 274 271 272 275 274 274 274 269 267 263 261 257 258 256 254 250 248 248 247 247 247 243 240 239 238
303 302 301 301 299 297 297 296 294 289 287 286 286 286 285 280 277 276 275 273 268 265 266 269 268 269 268 265 262 258 256 254 257 254 252 250 247 247 247 247 245 242 238
306 305 303 301 298 296 297 295 291 281 275 274 277 278 280 280 279 279 278 277 273 267 260 260 263 267 270 271 262 257 257 263 264 259 253 251 252 251 251 251 248 244 241
310 308 306 304 303 301 303 302 298 290 284 278 275 274 275 277 279 278 274 271 267 269 265 262 260 262 265 266 261 254 248 243 248 249 248 246 245 250 251 253 252 247 241
313 312 310 309 306 305 308 306 300 294 292 291 290 287 285 282 282 278 272 269 266 263 266 267 266 260 261 264 260 239 250 244 243 243 246 244 241 241 244 249 249 248 244
Wind_Speed_850mb
57 58 50 49 47 43 39 38 36 37 36 34 33 31 29 28 25 24 23 23 24 23 24 23 23 25 23 18 21 19 18 20 22 23 21 21 29 33 34 35 40 42 42
57 57 55 50 49 46 43 42 41 41 41 41 40 38 36 34 31 29 28 27 26 26 26 26 25 23 18 20 16 22 18 19 22 24 22 27 29 28 29 30 34 40 45
58 57 63 55 49 46 46 47 48 49 49 49 47 45 43 41 38 36 34 31 29 28 27 28 28 25 17 26 21 24 22 22 18 22 22 23 25 23 26 30 32 34 38
52 55 55 60 49 47 50 52 53 53 53 53 52 50 49 47 45 42 40 37 34 31 30 28 29 29 30 30 27 30 28 22 18 22 28 27 22 24 22 24 26 29 30
45 44 50 55 47 45 52 54 55 54 54 55 55 56 55 53 50 49 48 44 40 37 34 32 32 32 36 32 27 35 31 31 21 27 25 24 23 23 25 25 26 27 27
42 43 48 46 46 52 55 56 56 56 57 55 57 59 60 59 58 57 54 50 47 45 40 37 36 36 41 39 35 39 34 38 28 30 28 27 27 25 25 27 27 27 28
39 40 42 48 47 54 55 54 57 59 62 58 59 64 66 65 65 65 60 59 58 52 48 44 41 42 45 46 41 44 36 35 34 29 28 28 28 28 27 27 27 28 28
31 35 37 44 47 51 53 54 56 60 62 61 63 63 57 64 75 74 69 69 65 62 57 54 50 49 50 51 50 49 45 39 38 32 28 28 29 30 30 30 29 28 27
21 24 30 35 43 48 52 54 56 58 61 62 66 57 20 35 46 53 67 77 75 72 66 61 58 57 55 55 56 55 54 51 47 42 34 34 34 33 32 30 29 29 29
27 26 26 30 38 45 49 51 54 59 59 62 66 72 76 67 31 29 36 42 62 72 73 70 67 64 60 59 58 58 56 56 59 54 43 39 37 36 36 34 33 32 31
21 25 28 34 37 37 41 46 50 55 60 63 66 68 73 78 85 83 71 61 61 53 56 65 69 68 66 64 63 61 59 59 61 54 50 46 41 40 38 37 36 34 33
18 19 21 24 26 32 41 46 46 51 57 63 65 67 72 69 68 77 86 93 93 86 76 69 69 68 68 68 66 65 63 61 61 59 53 51 47 45 43 42 40 39 37
29 32 31 28 26 28 32 37 39 48 51 58 62 66 69 75 76 83 86 86 90 86 85 81 72 71 71 70 68 67 66 64 66 63 59 57 53 51 48 47 45 43 40
25 26 29 34 37 35 33 36 39 44 46 51 60 65 68 72 71 74 82 84 89 87 89 86 78 71 70 70 72 72 71 68 69 71 67 62 60 57 54 52 50 48 46
34 30 24 25 30 32 35 40 41 40 44 50 54 58 66 71 73 74 75 78 84 82 90 81 82 81 77 75 73 76 77 74 74 76 73 70 67 64 61 57 54 54 51
42 44 45 45 40 37 38 38 38 40 46 47 47 52 59 65 71 74 74 75 79 88 103 85 80 73 72 76 72 76 76 79 80 79 79 76 73 71 67 62 60 59 56
49 51 54 56 56 53 53 52 48 50 52 50 49 52 55 54 61 69 73 74 79 81 95 105 96 89 83 81 80 74 72 79 83 82 80 80 80 76 74 71 67 64 63
54 57 58 61 64 65 65 65 64 61 62 63 60 57 58 57 59 59 65 77 81 81 87 98 94 92 95 94 92 93 90 87 89 85 82 84 83 84 80 81 75 71 70
63 65 69 71 73 72 74 75 77 77 76 73 70 65 66 65 66 63 62 70 76 81 86 95 98 88 86 89 92 94 95 94 95 93 88 90 89 91 91 86 83 81 77
70 73 76 80 82 84 85 85 85 87 89 90 88 83 75 72 73 70 69 71 72 78 82 88 94 87 85 85 88 97 99 100 98 95 96 99 96 97 97 92 91 89 85
86 91 96 97 96 96 96 98 98 95 97 98 98 96 96 92 84 76 75 76 75 76 80 85 91 86 87 87 92 96 104 104 102 99 101 106 108 105 103 99 102 101 92
95 98 100 103 105 108 107 98 79 85 94 102 109 107 104 104 104 100 90 80 81 81 82 83 90 90 91 84 83 90 95 96 106 112 108 113 113 115 111 110 111 105 98
97 100 102 103 107 108 103 73 71 74 84 93 104 110 113 114 111 108 109 105 96 88 86 85 92 97 92 81 76 81 89 99 110 94 76 101 114 122 119 117 112 108 106
93 98 103 104 109 111 99 78 71 77 87 94 99 102 106 116 117 103 96 101 112 109 101 96 95 96 93 86 81 85 83 88 88 97 99 108 106 115 115 123 118 114 112
95 98 99 101 101 101 88 77 68 78 88 97 100 102 99 105 106 89 87 95 101 109 115 106 100 96 89 83 79 78 88 83 92 97 101 105 94 98 103 112 116 121 118
94 95 97 89 85 85 73 64 55 61 73 79 82 83 77 79 81 81 84 92 101 108 102 103 106 102 94 90 81 84 96 99 104 75 98 96 93 86 83 108 109 109 116
Wind_Direction_850mb
240 252 255 252 252 253 249 245 240 242 243 244 247 249 252 255 258 261 264 266 271 273 273 271 272 273 272 256 251 250 245 220 227 238 243 238 235 235 235 235 229 222 223
247 254 260 252 251 253 254 251 246 245 245 246 246 247 249 251 253 256 260 263 266 269 272 273 271 267 258 229 229 258 249 245 241 236 243 244 247 248 243 236 231 223 224
258 261 258 261 257 257 257 254 249 245 243 244 245 246 247 248 250 251 254 258 261 265 267 266 265 267 222 223 234 248 269 260 260 245 241 242 250 245 241 237 236 232 227
260 263 250 266 258 259 261 257 255 251 248 247 247 248 247 247 249 251 254 255 259 260 261 260 256 253 250 235 239 252 267 261 260 245 244 254 250 245 241 233 233 236 237
256 258 259 262 254 262 266 265 260 257 254 252 251 247 247 247 247 249 252 255 257 260 261 258 253 252 252 261 240 241 258 262 260 257 262 260 259 255 251 241 234 233 234
260 262 259 259 261 260 267 265 262 259 260 261 258 254 251 248 248 250 252 253 256 256 255 254 255 250 252 259 250 248 259 267 267 267 265 261 259 259 259 261 259 254 249
271 267 265 260 258 265 268 268 266 262 260 259 259 257 256 255 252 252 251 254 254 255 254 253 252 250 250 255 253 246 242 250 274 273 268 262 261 259 255 254 253 254 254
275 277 275 271 273 271 274 269 266 264 263 258 254 256 261 263 258 255 254 254 255 254 253 253 252 251 249 251 253 251 250 243 257 271 260 260 258 256 255 253 251 251 250
271 276 278 279 278 276 273 275 275 271 267 263 259 248 239 245 262 262 255 253 253 254 255 253 253 253 252 252 251 251 250 248 248 265 263 264 262 257 252 248 247 247 248
267 258 261 266 270 275 277 277 275 274 272 268 263 256 249 252 268 279 271 264 256 253 255 254 254 254 253 253 254 253 250 249 248 262 265 263 260 254 252 250 248 248 247
286 282 272 265 265 271 279 277 274 270 269 270 268 268 265 260 258 262 274 271 271 270 265 261 258 256 255 253 253 252 252 250 252 259 259 261 257 249 246 247 248 249 249
323 310 304 293 288 283 279 272 272 271 270 268 266 266 265 262 263 265 268 272 275 273 272 270 266 263 259 254 253 252 252 252 253 257 257 256 255 249 247 247 246 245 245
358 356 345 328 309 300 294 291 287 273 271 272 270 269 266 265 265 266 268 272 275 274 273 270 267 266 262 258 257 257 254 252 251 254 253 254 253 248 247 248 247 246 245
11 357 350 341 337 332 317 300 293 289 283 274 271 269 271 269 267 264 266 270 272 273 270 267 266 262 263 264 262 257 257 254 251 252 251 251 252 248 245 244 245 244 245
357 357 348 337 335 331 327 323 318 309 293 285 277 274 272 270 268 268 267 265 267 271 269 267 266 262 262 262 263 260 260 258 253 250 251 249 250 249 246 245 244 243 244
340 339 337 334 330 328 322 317 316 313 307 303 296 289 283 280 275 270 266 265 264 267 272 266 263 264 264 263 262 260 259 258 255 252 251 249 248 250 247 245 245 245 247
332 330 326 323 322 322 319 316 313 309 306 302 300 301 298 294 287 282 275 267 264 264 269 272 268 262 257 259 260 259 258 257 256 253 252 249 246 246 247 244 243 243 246
323 322 319 315 314 313 312 312 311 311 306 302 302 299 295 295 294 289 284 279 273 266 265 270 269 269 264 260 260 260 260 258 257 254 252 252 247 245 244 243 242 242 243
318 314 313 310 308 307 306 305 306 304 301 300 299 296 295 294 289 290 290 284 279 276 270 268 267 265 266 263 259 259 257 256 255 254 251 252 248 245 243 243 241 241 243
315 311 308 306 304 302 299 298 296 295 295 294 293 291 288 286 287 287 284 283 284 280 275 271 269 266 262 261 260 259 256 255 252 251 249 248 249 247 244 241 242 241 242
312 310 308 305 302 299 298 299 299 297 292 289 285 285 286 284 281 279 277 278 279 279 278 275 273 270 263 257 254 257 258 258 255 252 250 248 246 246 245 241 239 239 239
306 305 303 302 301 300 299 299 298 295 292 290 288 284 280 279 278 277 274 271 272 275 274 274 274 269 267 263 261 257 258 256 254 250 248 248 247 247 247 243 240 239 238
303 302 301 301 299 297 297 296 294 289 287 286 286 286 285 280 277 276 275 273 268 265 266 269 268 269 268 265 262 258 256 254 257 254 252 250 247 247 247 247 245 242 238
306 305 303 301 298 296 297 295 291 281 275 274 277 278 280 280 279 279 278 277 273 267 260 260 263 267 270 271 262 257 257 263 264 259 253 251 252 251 251 251 248 244 241
310 308 306 304 303 301 303 302 298 290 284 278 275 274 275 277 279 278 274 271 267 269 265 262 260 262 265 266 261 254 248 243 248 249 248 246 245 250 251 253 252 247 241
313 312 310 309 306 305 308 306 300 294 292 291 290 287 285 282 282 278 272 269 266 263 266 267 266 260 261 264 260 239 250 244 243 243 246 244 241 241 244 249 249 248 244